Location: Macksville High School
(37.9611°N, 99.9654°W)
Time: 01:39:59
(UTC+00:00)

CZ-4B R/B - Pass Details

Date: 17 January 2021
Orbit: 808 x 882 km, 99.1° (Epoch: 07 March)

Event Time Altitude Azimuth Distance (km) Brightness Sun altitude
Rises 12:37:47 0° 20° (NNE) 3,490 6.5 -14.9°
Reaches altitude 10° 12:40:17 10° 26° (NNE) 2,545 5.8 -14.4°
Maximum altitude 12:45:45 47° 100° (E) 1,145 4.4 -13.3°
Drops below altitude 10° 12:51:06 10° 173° (S) 2,505 6.0 -12.3°
Sets 12:53:33 0° 179° (S) 3,429 6.6 -11.9°
